| time (UTC) | temp F | wind direction | speed MPH | gust MPH | rain 1hr in | rain 24hr in | rain mn in | humidity % | barometer mb |
| 20260904014516 | 62 | 359 | 5.0 | 8.0 | 0.00 | 0.05 | 0.00 | 71 | 1028.0 |
| 20260904013015 | 62 | 287 | 2.0 | 6.0 | 0.00 | 0.05 | 0.00 | 72 | 1028.1 |
| 20260904011515 | 62 | 1 | 3.0 | 4.0 | 0.00 | 0.05 | 0.00 | 73 | 1028.2 |
| 20260904010016 | 61 | 1 | 5.0 | 8.0 | 0.00 | 0.05 | 0.00 | 73 | 1028.2 |
| 20260904004515 | 61 | 349 | 4.0 | 5.0 | 0.00 | 0.05 | 0.00 | 79 | 1028.2 |
| 20260904003015 | 61 | 244 | 5.0 | 8.0 | 0.00 | 0.05 | 0.00 | 79 | 1028.4 |
| 20260904001514 | 60 | 221 | 5.0 | 7.0 | 0.00 | 0.05 | 0.00 | 85 | 1028.4 |
| 20260904000015 | 60 | 220 | 8.0 | 9.0 | 0.00 | 0.05 | 0.00 | 86 | 1028.7 |
| 20260903234515 | 60 | 220 | 8.0 | 9.0 | 0.00 | 0.05 | 0.00 | 85 | 1028.5 |
| 20260903233014 | 59 | 207 | 5.0 | 7.0 | 0.00 | 0.05 | 0.00 | 85 | 1028.7 |
| 20260903231515 | 60 | 203 | 4.0 | 7.0 | 0.00 | 0.05 | 0.00 | 83 | 1028.7 |
| 20260903230014 | 60 | 244 | 2.0 | 4.0 | 0.00 | 0.05 | 0.00 | 81 | 1029.0 |
| 20260903224515 | 61 | 244 | 4.0 | 6.0 | 0.00 | 0.05 | 0.00 | 79 | 1028.7 |
| 20260903223015 | 60 | 244 | 2.0 | 3.0 | 0.00 | 0.05 | 0.00 | 79 | 1028.7 |
| 20260903221514 | 60 | 244 | 1.0 | 2.0 | 0.00 | 0.05 | 0.00 | 80 | 1028.5 |
| 20260903220015 | 60 | 244 | 2.0 | 4.0 | 0.00 | 0.05 | 0.00 | 82 | 1028.4 |
| 20260903214515 | 60 | 244 | 3.0 | 5.0 | 0.00 | 0.05 | 0.05 | 82 | 1028.3 |
| 20260903213014 | 61 | 243 | 3.0 | 4.0 | 0.00 | 0.05 | 0.05 | 83 | 1028.4 |
| 20260903211514 | 61 | 240 | 5.0 | 6.0 | 0.00 | 0.05 | 0.05 | 83 | 1028.5 |
| 20260903210013 | 61 | 256 | 4.0 | 7.0 | 0.00 | 0.05 | 0.05 | 83 | 1028.5 |
| 20260903203013 | 61 | 244 | 7.0 | 8.0 | 0.00 | 0.05 | 0.05 | 82 | 1028.5 |
| 20260903201519 | 61 | 243 | 4.0 | 5.0 | 0.00 | 0.05 | 0.05 | 83 | 1028.5 |
| 20260903200019 | 60 | 230 | 6.0 | 7.0 | 0.00 | 0.05 | 0.05 | 83 | 1028.4 |
| 20260903194519 | 60 | 227 | 6.0 | 7.0 | 0.00 | 0.05 | 0.05 | 83 | 1028.2 |
| 20260903193019 | 60 | 222 | 5.0 | 6.0 | 0.00 | 0.05 | 0.05 | 83 | 1028.2 |
| 20260903191519 | 60 | 223 | 7.0 | 9.0 | 0.00 | 0.05 | 0.05 | 83 | 1028.2 |
| 20260903190019 | 60 | 230 | 6.0 | 7.0 | 0.00 | 0.05 | 0.05 | 84 | 1028.0 |
| 20260903184518 | 60 | 221 | 7.0 | 8.0 | 0.00 | 0.05 | 0.05 | 81 | 1027.9 |
| 20260903183019 | 60 | 223 | 6.0 | 7.0 | 0.00 | 0.05 | 0.05 | 79 | 1027.8 |
| 20260903181518 | 60 | 224 | 6.0 | 7.0 | 0.00 | 0.05 | 0.05 | 80 | 1027.7 |
| 20260903180019 | 59 | 220 | 6.0 | 8.0 | 0.00 | 0.05 | 0.05 | 85 | 1027.6 |
| 20260903174518 | 59 | 211 | 6.0 | 8.0 | 0.00 | 0.05 | 0.05 | 88 | 1027.6 |
| 20260903173019 | 59 | 194 | 6.0 | 8.0 | 0.00 | 0.05 | 0.05 | 87 | 1027.6 |
| 20260903171517 | 60 | 190 | 6.0 | 9.0 | 0.00 | 0.05 | 0.05 | 86 | 1027.6 |
| 20260903163018 | 61 | 189 | 8.0 | 12.0 | 0.00 | 0.05 | 0.05 | 83 | 1027.6 |
| 20260903161517 | 62 | 196 | 10.0 | 15.0 | 0.00 | 0.05 | 0.05 | 81 | 1027.4 |
| 20260903160018 | 62 | 192 | 10.0 | 14.0 | 0.00 | 0.05 | 0.05 | 82 | 1027.4 |
| 20260903154517 | 62 | 193 | 10.0 | 14.0 | 0.00 | 0.05 | 0.05 | 80 | 1027.1 |
| 20260903153017 | 62 | 188 | 9.0 | 14.0 | 0.00 | 0.05 | 0.05 | 80 | 1027.1 |
| 20260903150017 | 62 | 192 | 11.0 | 20.0 | 0.01 | 0.05 | 0.05 | 78 | 1027.1 |
| 20260903144517 | 63 | 184 | 11.0 | 20.0 | 0.01 | 0.05 | 0.05 | 78 | 1027.0 |
| 20260903141517 | 62 | 191 | 10.0 | 15.0 | 0.00 | 0.04 | 0.04 | 84 | 1027.8 |
| 20260903140017 | 62 | 192 | 11.0 | 18.0 | 0.00 | 0.04 | 0.04 | 83 | 1027.8 |
| 20260903134515 | 62 | 173 | 12.0 | 22.0 | 0.00 | 0.04 | 0.04 | 82 | 1027.8 |
| 20260903133015 | 62 | 192 | 10.0 | 16.0 | 0.00 | 0.04 | 0.04 | 79 | 1027.7 |
| 20260903131516 | 62 | 192 | 10.0 | 16.0 | 0.00 | 0.04 | 0.04 | 80 | 1027.7 |
| 20260903130016 | 61 | 195 | 10.0 | 20.0 | 0.00 | 0.04 | 0.04 | 82 | 1027.7 |
| 20260903123016 | 62 | 185 | 11.0 | 20.0 | 0.00 | 0.04 | 0.04 | 82 | 1028.0 |
| 20260903121515 | 61 | 191 | 10.0 | 18.0 | 0.00 | 0.04 | 0.04 | 83 | 1028.0 |
| 20260903120015 | 61 | 189 | 11.0 | 19.0 | 0.01 | 0.04 | 0.04 | 85 | 1028.3 |
| 20260903114515 | 61 | 175 | 13.0 | 25.0 | 0.01 | 0.04 | 0.04 | 83 | 1028.2 |
| 20260903113015 | 60 | 145 | 12.0 | 19.0 | 0.01 | 0.04 | 0.04 | 85 | 1027.9 |
| 20260903111514 | 60 | 168 | 11.0 | 16.0 | 0.01 | 0.04 | 0.04 | 88 | 1028.1 |
| 20260903110015 | 60 | 173 | 9.0 | 18.0 | 0.00 | 0.03 | 0.03 | 89 | 1028.3 |
| 20260903104513 | 61 | 146 | 10.0 | 20.0 | 0.00 | 0.03 | 0.03 | 85 | 1028.3 |
| 20260903103014 | 61 | 165 | 12.0 | 18.0 | 0.00 | 0.03 | 0.03 | 87 | 1028.3 |
| 20260903100015 | 61 | 142 | 11.0 | 15.0 | 0.00 | 0.03 | 0.03 | 82 | 1028.3 |
| 20260903094514 | 61 | 151 | 8.0 | 14.0 | 0.01 | 0.03 | 0.03 | 83 | 1028.6 |
| 20260903091514 | 59 | 182 | 6.0 | 9.0 | 0.01 | 0.03 | 0.03 | 88 | 1028.6 |
| 20260903090014 | 60 | 154 | 5.0 | 11.0 | 0.01 | 0.03 | 0.03 | 87 | 1028.6 |
| 20260903083014 | 59 | 161 | 6.0 | 11.0 | 0.00 | 0.02 | 0.02 | 89 | 1028.6 |
| 20260903081519 | 59 | 168 | 5.0 | 12.0 | 0.00 | 0.02 | 0.02 | 89 | 1028.2 |
| 20260903080019 | 60 | 120 | 5.0 | 10.0 | 0.00 | 0.02 | 0.02 | 84 | 1028.2 |
| 20260903073019 | 60 | 23 | 2.0 | 8.0 | 0.01 | 0.02 | 0.02 | 86 | 1028.2 |
| 20260903071519 | 58 | 1 | 2.0 | 3.0 | 0.01 | 0.02 | 0.02 | 87 | 1028.0 |
| 20260903070020 | 58 | 2 | 2.0 | 4.0 | 0.01 | 0.02 | 0.02 | 86 | 1027.9 |
| 20260903064518 | 59 | 10 | 1.0 | 4.0 | 0.01 | 0.02 | 0.02 | 85 | 1027.7 |
| 20260903063018 | 59 | 10 | 0.0 | 1.0 | 0.00 | 0.02 | 0.02 | 83 | 1027.7 |
| 20260903061518 | 58 | 10 | 1.0 | 4.0 | 0.00 | 0.02 | 0.02 | 84 | 1027.7 |
| 20260903060018 | 58 | 10 | 2.0 | 4.0 | 0.00 | 0.02 | 0.02 | 87 | 1027.6 |
| 20260903053019 | 58 | 1 | 5.0 | 8.0 | 0.00 | 0.02 | 0.02 | 80 | 1027.2 |
| 20260903051517 | 57 | 1 | 7.0 | 9.0 | 0.01 | 0.02 | 0.02 | 87 | 1027.3 |
| 20260903050018 | 56 | 1 | 9.0 | 10.0 | 0.01 | 0.02 | 0.02 | 92 | 1027.1 |
| 20260903041517 | 57 | 1 | 9.0 | 13.0 | 0.00 | 0.01 | 0.01 | 91 | 1027.0 |
| 20260903040018 | 56 | 1 | 10.0 | 13.0 | 0.00 | 0.01 | 0.01 | 91 | 1027.1 |
| 20260903034517 | 57 | 1 | 8.0 | 11.0 | 0.00 | 0.01 | 0.01 | 90 | 1026.8 |
| 20260903033017 | 56 | 1 | 7.0 | 11.0 | 0.00 | 0.01 | 0.01 | 91 | 1026.8 |
| 20260903031516 | 56 | 1 | 3.0 | 5.0 | 0.00 | 0.01 | 0.01 | 91 | 1026.9 |
| 20260903030017 | 56 | 358 | 2.0 | 4.0 | 0.00 | 0.01 | 0.01 | 90 | 1027.0 |
| 20260903024515 | 57 | 1 | 5.0 | 8.0 | 0.01 | 0.01 | 0.01 | 91 | 1027.0 |
| 20260903023016 | 56 | 1 | 5.0 | 6.0 | 0.01 | 0.01 | 0.01 | 90 | 1027.0 |
| 20260903021516 | 57 | 356 | 5.0 | 6.0 | 0.01 | 0.01 | 0.01 | 90 | 1027.1 |
| 20260903020017 | 57 | 320 | 4.0 | 5.0 | 0.01 | 0.01 | 0.01 | 89 | 1027.0 |